EW1160 Weather Reports


Display with metric or nautical units.
time (UTC)temp
F
wind
direction
speed
MPH
gust
MPH
rain 1hr
in
rain 24hr
in
rain mn
in
humidity
%
barometer
mb
20260901040105 70 164 0.0 0.0 0.00 0.19 0.00 91 1010.8
20260901034600 70 182 0.0 0.0 0.00 0.19 0.19 91 1010.9
20260901033043 71 164 0.0 0.0 0.00 0.19 0.19 91 1010.9
20260901031543 71 160 0.0 0.0 0.00 0.19 0.19 91 1011.1
20260901030042 71 159 0.0 0.0 0.00 0.19 0.19 90 1011.2
20260901024550 71 158 0.0 0.0 0.00 0.19 0.19 91 1011.4
20260901023056 72 171 0.0 0.0 0.00 0.19 0.19 91 1011.3
20260901021526 72 174 0.0 0.0 0.00 0.19 0.19 90 1011.3
20260901020024 72 175 0.0 0.0 0.00 0.19 0.19 90 1011.1
20260901014506 72 158 0.0 0.0 0.00 0.19 0.19 91 1011.0
20260901013005 72 359 0.0 0.0 0.00 0.19 0.19 90 1010.9
20260901011548 72 158 0.0 2.0 0.00 0.19 0.19 90 1010.8
20260901010048 72 156 0.0 0.0 0.00 0.19 0.19 90 1010.8
20260901004533 72 161 0.0 0.0 0.00 0.20 0.19 90 1010.8
20260901003030 72 154 0.0 0.0 0.00 0.20 0.19 90 1010.9
20260901001514 73 162 0.0 6.0 0.00 0.20 0.19 89 1011.0
20260901000011 72 179 0.0 6.0 0.00 0.20 0.19 89 1011.2
20260831234554 72 156 0.0 6.0 0.00 0.30 0.19 90 1011.2
20260831233055 73 159 0.0 5.0 0.01 0.30 0.19 91 1011.4
20260831231535 73 164 2.0 6.0 0.01 0.30 0.19 91 1011.5
20260831230034 73 199 0.0 3.0 0.01 0.30 0.19 91 1011.9
20260831224517 73 201 0.0 0.0 0.01 0.40 0.19 90 1011.8
20260831223019 73 157 0.0 0.0 0.00 0.39 0.18 91 1011.7
20260831221617 73 162 0.0 0.0 0.00 0.39 0.18 92 1011.9
20260831220119 72 359 0.0 0.0 0.00 0.39 0.18 91 1012.2
20260831214600 73 162 0.0 0.0 0.00 0.44 0.18 91 1012.4
20260831213048 73 359 0.0 0.0 0.00 0.44 0.18 91 1012.0
20260831211555 73 162 0.0 0.0 0.00 0.44 0.18 91 1012.0
20260831210046 73 162 0.0 0.0 0.00 0.44 0.18 91 1011.7
20260831204552 73 162 0.0 0.0 0.00 0.47 0.18 92 1011.4
20260831203045 72 187 0.0 0.0 0.01 0.47 0.18 93 1011.1
20260831201542 71 359 0.0 2.0 0.02 0.47 0.18 93 1011.0
20260831200045 70 160 0.0 1.0 0.02 0.47 0.18 93 1011.4
20260831194541 71 147 0.0 3.0 0.03 0.57 0.18 93 1012.3
20260831193033 71 359 0.0 0.0 0.03 0.56 0.17 93 1013.0
20260831191519 71 258 0.0 0.0 0.03 0.56 0.16 92 1013.2
20260831190002 71 359 0.0 0.0 0.03 0.56 0.16 92 1012.7
20260831184501 72 359 0.0 0.0 0.02 0.62 0.15 91 1014.0
20260831183043 73 262 0.0 0.0 0.01 0.61 0.14 90 1014.7
20260831181542 73 359 0.0 0.0 0.00 0.60 0.13 91 1014.2
20260831180039 73 359 0.0 1.0 0.00 0.60 0.13 91 1014.4
20260831174525 73 219 0.0 2.0 0.00 0.61 0.13 92 1014.7
20260831173007 73 359 0.0 0.0 0.00 0.61 0.13 93 1014.0
20260831171506 72 168 0.0 0.0 0.00 0.61 0.13 93 1013.9
20260831170046 72 169 0.0 0.0 0.00 0.61 0.13 93 1014.3
20260831164556 72 169 0.0 0.0 0.00 0.62 0.13 93 1014.7
20260831163027 72 170 0.0 0.0 0.00 0.62 0.13 93 1014.8
20260831161527 72 168 0.0 0.0 0.00 0.62 0.13 93 1015.0
20260831160015 72 359 0.0 0.0 0.00 0.62 0.13 93 1015.2
20260831154513 72 170 0.0 0.0 0.10 0.70 0.13 93 1015.0
20260831153010 71 170 0.0 0.0 0.10 0.70 0.13 92 1014.6
20260831151512 72 166 0.0 0.0 0.10 0.70 0.13 92 1014.2
20260831150011 72 168 0.0 0.0 0.10 0.70 0.13 92 1014.0
20260831144514 72 170 0.0 0.0 0.00 0.60 0.03 92 1014.0
20260831143017 72 170 0.0 0.0 0.00 0.60 0.03 92 1013.5
20260831141507 72 166 0.0 1.0 0.00 0.60 0.03 92 1013.6
20260831140048 72 172 0.0 0.0 0.00 0.60 0.03 92 1013.6
20260831134553 72 178 0.0 0.0 0.00 0.70 0.03 92 1013.5
20260831133029 72 159 0.0 0.0 0.00 0.70 0.03 93 1013.1
20260831131525 71 168 0.0 0.0 0.00 0.70 0.03 94 1013.2
20260831130006 70 166 0.0 0.0 0.00 0.70 0.03 94 1013.2
20260831124504 69 167 0.0 0.0 0.00 0.74 0.03 94 1013.3
20260831123046 69 166 0.0 0.0 0.00 0.74 0.03 94 1012.9
20260831121545 69 359 0.0 0.0 0.00 0.74 0.03 94 1012.8
20260831120036 69 359 0.0 0.0 0.00 0.74 0.03 94 1013.0
20260831114532 69 166 0.0 0.0 0.00 0.74 0.03 94 1013.9
20260831113007 69 359 0.0 0.0 0.00 0.74 0.03 94 1014.0
20260831111506 69 166 0.0 0.0 0.00 0.74 0.03 94 1014.0
20260831110053 68 164 0.0 0.0 0.00 0.74 0.03 94 1013.8
20260831104557 69 164 0.0 0.0 0.00 0.74 0.03 93 1013.9
20260831103040 69 166 0.0 0.0 0.00 0.74 0.03 94 1013.7
20260831101542 69 166 0.0 0.0 0.00 0.74 0.03 94 1013.6
20260831100041 69 166 0.0 0.0 0.00 0.74 0.03 93 1013.6
20260831094535 69 166 0.0 0.0 0.00 0.75 0.03 93 1013.5
20260831093045 69 359 0.0 0.0 0.00 0.75 0.03 93 1013.5
20260831091534 69 166 0.0 0.0 0.02 0.75 0.03 93 1013.5
20260831090040 69 168 0.0 0.0 0.03 0.75 0.03 93 1013.5
20260831084533 69 167 0.0 0.0 0.03 0.76 0.03 93 1013.3
20260831083016 69 168 0.0 0.0 0.03 0.76 0.03 93 1013.4
20260831081515 69 166 0.0 0.0 0.01 0.74 0.01 93 1013.4
20260831080057 69 359 0.0 0.0 0.00 0.73 0.00 93 1013.3
20260831074556 68 166 0.0 0.0 0.00 0.73 0.00 93 1013.3
20260831073038 68 166 0.0 0.0 0.00 0.73 0.00 93 1013.3
20260831071535 68 166 0.0 0.0 0.00 0.73 0.00 93 1013.6
20260831070016 68 359 0.0 0.0 0.00 0.73 0.00 93 1013.9
20260831064515 68 165 0.0 0.0 0.00 0.73 0.00 93 1013.9
20260831063057 68 164 0.0 0.0 0.00 0.73 0.00 93 1013.9
20260831061557 68 155 0.0 0.0 0.00 0.73 0.00 93 1013.9
20260831060044 68 154 0.0 0.0 0.00 0.73 0.00 93 1014.0
20260831054535 68 154 0.0 0.0 0.00 0.73 0.00 93 1014.2
20260831053022 68 158 0.0 0.0 0.00 0.73 0.00 93 1014.3
20260831051518 68 154 0.0 0.0 0.00 0.73 0.00 93 1014.2
20260831050100 68 160 0.0 0.0 0.00 0.73 0.00 92 1014.4
20260831044614 68 163 0.0 0.0 0.00 0.73 0.00 92 1014.2
20260831043044 68 165 0.0 0.0 0.00 0.73 0.00 92 1014.3
20260831041550 67 359 0.0 0.0 0.00 0.73 0.00 93 1014.2